カタログに戻る

COSMOS 2591

運用中軍事SSO
NORAD 65267·PAYLOAD·🇷🇺 Russia

打ち上げ Aug 21, 2025 から Plesetsk Cosmodrome

Loading…

次のパス (今後24時間)

TLE

最新Source: Space-Track

元期: Sep 14, 2026, 13:25 UTC

1 65267U 25182A   26257.55910768  .00068145  36156-5  16560-3 0  9998
2 65267  96.5828 186.8296 0006837 133.6603 226.5243 15.96349357 61959

AllMySatでCOSMOS 2591をリアルタイム追跡

Download on the App Store